Olivia, MN

7:21 PM CST on December 03, 2016 (GMT -0600)
Olivia Regional

Weather History for KOVL - May, 2013

Change the Weather History Date:

Thursday, May 2, 2013

  Actual Average (KRWF) Record (KRWF)
Temperature  
Mean Temperature 41 °F -  
Max Temperature 50 °F 64 °F 93 °F (1959)
Min Temperature 32 °F 40 °F 25 °F (1961)
Degree Days  
Heating Degree Days 24    
Moisture  
Dew Point 24 °F    
Average Humidity 56    
Maximum Humidity 75    
Minimum Humidity 35    
Precipitation  
Precipitation 0.00 in - - ()
Sea Level Pressure  
Sea Level Pressure 30.51 in    
Wind  
Wind Speed 14 mph (North)    
Max Wind Speed 29 mph    
Max Gust Speed 36 mph    
Visibility 10 miles    
Events      
Averages and records for this station are not official NWS values.
T = Trace of Precipitation, MM = Missing Value Source: NWS Daily Summary

Daily Weather History Graph

Daily Weather History Graph

Search for Another Location

Airport or City:

Trip Planner

Search our weather history database for the weather conditions in past years. The results will help you decide how hot, cold, wet, or windy it might be!

Date:

Astronomy

May. 02, 2013 Rise Set
Actual Time 6:08 AM CDT 8:26 PM CDT
Civil Twilight 5:35 AM CDT 8:59 PM CDT
Nautical Twilight 4:55 AM CDT 9:39 PM CDT
Astronomical Twilight 4:10 AM CDT 10:24 PM CDT
Moon 2:14 AM CDT (5/2) 12:59 PM CDT (5/2)
Length of Visible Light 15h 23m
Length of Day
14h 18m
Waning Gibbous, 47% of the Moon is Illuminated
May 2
Waning Gibbous
May 9
New
May 17
First Quarter
May 24
Full
May 31
Last Quarter

Hourly Weather History & Observations

Time (CDT) Temp. Windchill Dew Point Humidity Pressure Visibility Wind Dir Wind Speed Gust Speed Precip Events Conditions
12:13 AM 35.6 °F 27.1 °F 28.4 °F 75% 30.51 in 10.0 mi North 12.7 mph 20.7 mph N/A   Clear
12:34 AM 35.6 °F 27.1 °F 28.4 °F 75% 30.52 in 10.0 mi North 12.7 mph 18.4 mph N/A   Clear
12:54 AM 35.6 °F 27.5 °F 28.4 °F 75% 30.53 in 10.0 mi North 11.5 mph 18.4 mph N/A   Clear
1:13 AM 35.6 °F 27.1 °F 28.4 °F 75% 30.52 in 10.0 mi North 12.7 mph 18.4 mph N/A   Clear
1:34 AM 35.6 °F 27.1 °F 28.4 °F 75% 30.52 in 10.0 mi North 12.7 mph - N/A   Clear
1:54 AM 33.8 °F 26.4 °F 26.6 °F 75% 30.53 in 10.0 mi North 9.2 mph - N/A   Clear
2:13 AM 33.8 °F 25.3 °F 26.6 °F 75% 30.53 in 10.0 mi North 11.5 mph 16.1 mph N/A   Clear
2:33 AM 33.8 °F 25.3 °F 26.6 °F 75% 30.54 in 10.0 mi North 11.5 mph 16.1 mph N/A   Clear
2:54 AM 33.8 °F 26.4 °F 26.6 °F 75% 30.54 in 10.0 mi North 9.2 mph 16.1 mph N/A   Clear
3:14 AM 33.8 °F 25.8 °F 26.6 °F 75% 30.54 in 10.0 mi North 10.4 mph 16.1 mph N/A   Clear
3:34 AM 33.8 °F 24.3 °F 26.6 °F 75% 30.54 in 10.0 mi North 13.8 mph 18.4 mph N/A   Clear
3:54 AM 33.8 °F 24.8 °F 26.6 °F 75% 30.54 in 10.0 mi North 12.7 mph 17.3 mph N/A   Scattered Clouds
4:14 AM 33.8 °F 24.3 °F 26.6 °F 75% 30.53 in 10.0 mi North 13.8 mph - N/A   Scattered Clouds
4:34 AM 33.8 °F 24.8 °F 26.6 °F 75% 30.54 in 10.0 mi North 12.7 mph - N/A   Clear
4:54 AM 33.8 °F 24.8 °F 26.6 °F 75% 30.54 in 10.0 mi North 12.7 mph - N/A   Clear
5:14 AM 33.8 °F 25.3 °F 24.8 °F 70% 30.54 in 10.0 mi North 11.5 mph - N/A   Clear
5:33 AM 33.8 °F 26.4 °F 26.6 °F 75% 30.54 in 10.0 mi North 9.2 mph - N/A   Clear
5:54 AM 33.8 °F 26.4 °F 24.8 °F 70% 30.55 in 10.0 mi North 9.2 mph - N/A   Clear
6:14 AM 33.8 °F 25.8 °F 24.8 °F 70% 30.56 in 10.0 mi North 10.4 mph - N/A   Scattered Clouds
6:34 AM 33.8 °F 26.4 °F 24.8 °F 70% 30.56 in 10.0 mi North 9.2 mph - N/A   Scattered Clouds
6:54 AM 33.8 °F 26.4 °F 24.8 °F 70% 30.57 in 10.0 mi North 9.2 mph - N/A   Clear
7:14 AM 33.8 °F 25.8 °F 24.8 °F 70% 30.57 in 10.0 mi North 10.4 mph - N/A   Scattered Clouds
7:34 AM 33.8 °F 26.4 °F 23.0 °F 65% 30.57 in 10.0 mi North 9.2 mph 16.1 mph N/A   Clear
7:54 AM 33.8 °F 25.8 °F 24.8 °F 70% 30.58 in 10.0 mi NNW 10.4 mph - N/A   Clear
8:13 AM 35.6 °F 25.9 °F 24.8 °F 65% 30.57 in 10.0 mi NNW 16.1 mph - N/A   Clear
8:34 AM 35.6 °F 26.2 °F 26.6 °F 70% 30.57 in 10.0 mi North 15.0 mph 21.9 mph N/A   Clear
8:54 AM 35.6 °F 25.9 °F 23.0 °F 60% 30.58 in 10.0 mi North 16.1 mph 23.0 mph N/A   Clear
9:13 AM 35.6 °F 25.2 °F 23.0 °F 60% 30.58 in 10.0 mi NNW 18.4 mph 25.3 mph N/A   Clear
9:34 AM 35.6 °F 26.6 °F 21.2 °F 56% 30.59 in 10.0 mi North 13.8 mph 25.3 mph N/A   Clear
9:54 AM 39.2 °F 28.7 °F 23.0 °F 52% 30.58 in 10.0 mi NNW 23.0 mph 28.8 mph N/A   Clear
10:14 AM 39.2 °F 29.0 °F 21.2 °F 49% 30.58 in 10.0 mi North 21.9 mph 31.1 mph N/A   Clear
10:34 AM 41.0 °F 30.9 °F 19.4 °F 42% 30.57 in 10.0 mi North 24.2 mph 32.2 mph N/A   Clear
10:54 AM 41.0 °F 30.7 °F 21.2 °F 45% 30.56 in 10.0 mi NNW 25.3 mph 34.5 mph N/A   Clear
11:14 AM 42.8 °F 32.9 °F 19.4 °F 39% 30.56 in 10.0 mi NNW 26.5 mph 33.4 mph N/A   Clear
11:34 AM 42.8 °F 33.5 °F 21.2 °F 42% 30.56 in 10.0 mi NNW 23.0 mph 29.9 mph N/A   Clear
11:54 AM 42.8 °F 32.5 °F 19.4 °F 39% 30.56 in 10.0 mi NNW 28.8 mph 34.5 mph N/A   Clear
12:14 PM 44.6 °F 36.1 °F 21.2 °F 39% 30.55 in 10.0 mi NNW 21.9 mph 33.4 mph N/A   Clear
12:34 PM 42.8 °F 33.1 °F 21.2 °F 42% 30.54 in 10.0 mi NNW 25.3 mph 35.7 mph N/A   Clear
12:53 PM 42.8 °F 33.1 °F 21.2 °F 42% 30.53 in 10.0 mi NNW 25.3 mph 32.2 mph N/A   Clear
1:14 PM 46.4 °F 38.3 °F 23.0 °F 40% 30.53 in 10.0 mi NNW 23.0 mph 31.1 mph N/A   Clear
1:34 PM 46.4 °F 38.1 °F 23.0 °F 40% 30.52 in 10.0 mi NNW 24.2 mph 29.9 mph N/A   Clear
1:54 PM 46.4 °F 38.7 °F 23.0 °F 40% 30.51 in 10.0 mi North 20.7 mph 32.2 mph N/A   Clear
2:14 PM 46.4 °F 38.1 °F 23.0 °F 40% 30.51 in 10.0 mi NNW 24.2 mph 29.9 mph N/A   Clear
2:34 PM 46.4 °F 38.5 °F 23.0 °F 40% 30.51 in 10.0 mi NNW 21.9 mph 31.1 mph N/A   Clear
2:54 PM 46.4 °F 39.0 °F 23.0 °F 40% 30.50 in 10.0 mi NNW 19.6 mph 27.6 mph N/A   Clear
3:14 PM 48.2 °F - 23.0 °F 37% 30.49 in 10.0 mi North 18.4 mph 28.8 mph N/A   Clear
3:33 PM 50.0 °F - 24.8 °F 37% 30.48 in 10.0 mi NNW 17.3 mph 27.6 mph N/A   Clear
3:54 PM 50.0 °F - 23.0 °F 35% 30.48 in 10.0 mi North 20.7 mph 31.1 mph N/A   Clear
4:14 PM 50.0 °F - 24.8 °F 37% 30.48 in 10.0 mi North 24.2 mph 29.9 mph N/A   Clear
4:34 PM 50.0 °F - 23.0 °F 35% 30.47 in 10.0 mi North 18.4 mph 26.5 mph N/A   Clear
4:54 PM 50.0 °F - 23.0 °F 35% 30.46 in 10.0 mi North 18.4 mph 26.5 mph N/A   Clear
5:14 PM 50.0 °F - 24.8 °F 37% 30.46 in 10.0 mi North 17.3 mph 26.5 mph N/A   Clear
5:34 PM 50.0 °F - 24.8 °F 37% 30.46 in 10.0 mi NNW 19.6 mph 26.5 mph N/A   Clear
5:54 PM 46.4 °F 39.5 °F 23.0 °F 40% 30.45 in 10.0 mi NNW 17.3 mph - N/A   Clear
6:13 PM 46.4 °F 39.5 °F 23.0 °F 40% 30.45 in 10.0 mi NNW 17.3 mph 23.0 mph N/A   Clear
6:34 PM 46.4 °F 40.1 °F 23.0 °F 40% 30.45 in 10.0 mi North 15.0 mph 23.0 mph N/A   Clear
6:54 PM 46.4 °F 39.5 °F 24.8 °F 43% 30.45 in 10.0 mi NNW 17.3 mph 21.9 mph N/A   Clear
7:14 PM 44.6 °F 37.8 °F 23.0 °F 43% 30.45 in 10.0 mi North 15.0 mph 18.4 mph N/A   Clear
7:34 PM 44.6 °F 38.1 °F 23.0 °F 43% 30.45 in 10.0 mi North 13.8 mph - N/A   Clear
7:54 PM 42.8 °F 36.6 °F 23.0 °F 46% 30.45 in 10.0 mi North 11.5 mph 18.4 mph N/A   Clear
8:14 PM 42.8 °F 35.8 °F 23.0 °F 46% 30.45 in 10.0 mi NNW 13.8 mph 19.6 mph N/A   Clear
8:33 PM 41.0 °F 33.5 °F 24.8 °F 53% 30.45 in 10.0 mi NNW 13.8 mph - N/A   Clear
8:54 PM 39.2 °F 32.5 °F 23.0 °F 52% 30.45 in 10.0 mi NNW 10.4 mph - N/A   Clear
9:14 PM 39.2 °F 32.0 °F 24.8 °F 56% 30.45 in 10.0 mi NNW 11.5 mph - N/A   Clear
9:33 PM 37.4 °F 30.8 °F 24.8 °F 60% 30.46 in 10.0 mi NNW 9.2 mph - N/A   Clear
9:54 PM 35.6 °F 29.2 °F 23.0 °F 60% 30.46 in 10.0 mi North 8.1 mph - N/A   Clear
10:14 PM 35.6 °F 29.9 °F 24.8 °F 65% 30.46 in 10.0 mi North 6.9 mph - N/A   Clear
10:34 PM 35.6 °F 29.9 °F 23.0 °F 60% 30.46 in 10.0 mi North 6.9 mph - N/A   Clear
10:54 PM 33.8 °F 29.6 °F 24.8 °F 70% 30.46 in 10.0 mi North 4.6 mph - N/A   Clear
11:14 PM 33.8 °F 27.0 °F 24.8 °F 70% 30.46 in 10.0 mi North 8.1 mph - N/A   Clear
11:34 PM 32.0 °F - 23.0 °F 69% 30.45 in 10.0 mi Calm Calm - N/A   Clear
11:54 PM 33.8 °F 26.4 °F 26.6 °F 75% 30.45 in 10.0 mi North 9.2 mph - N/A   Clear